Location: Newark
(38.8913°N, 77.0259°W)
Time: 20:38:55
(UTC+00:00)

Envisat - Visible Passes

Search period start: 09 December 2019 00:00
Search period end: 19 December 2019 00:00
Orbit: 764 x 766 km, 98.1° (Epoch: 09 December)

Date Brightness Start Highest point End Pass type
(mag) Time Alt. Az. Time Alt. Az. Time Alt. Az.
09 Dec 3.1 23:13:42 10° S 23:18:46 78° WSW 23:23:53 10° NNW visible
10 Dec 4.6 11:24:04 10° NNE 11:28:50 40° E 11:33:35 10° SSE visible
10 Dec 3.2 22:37:16 10° SE 22:42:05 46° ENE 22:46:57 10° N visible
11 Dec 5.6 00:17:46 10° SW 00:21:19 19° W 00:24:54 10° NW visible
11 Dec 5.9 10:48:27 10° NE 10:51:49 18° E 10:55:10 10° SE visible
11 Dec 4.2 23:39:30 10° S 23:44:19 43° W 23:49:10 10° NNW visible
12 Dec 2.9 23:02:26 10° SSE 23:07:30 83° ENE 23:12:37 10° N visible
13 Dec 5.1 11:13:00 10° NE 11:17:30 31° E 11:21:59 10° SSE visible
13 Dec 3.5 22:26:16 10° SE 22:30:53 36° ENE 22:35:31 10° N visible
14 Dec 5.2 00:05:53 10° SSW 00:09:57 24° W 00:14:03 10° NW visible
14 Dec 6.1 10:37:55 10° ENE 10:40:25 14° E 10:42:55 10° ESE visible
14 Dec 3.7 23:28:02 10° S 23:32:59 55° W 23:38:00 10° NNW visible
15 Dec 3.8 11:38:05 10° NNE 11:43:06 56° E 11:48:04 10° S visible
15 Dec 2.9 22:51:14 10° SSE 22:56:15 65° ENE 23:01:17 10° N visible
16 Dec 6.0 00:33:16 10° WSW 00:35:41 13° W 00:38:06 10° WNW visible
16 Dec 5.5 11:02:01 10° NE 11:06:09 25° E 11:10:16 10° SSE visible
16 Dec 3.8 22:15:21 10° SE 22:19:41 29° ENE 22:24:01 10° N visible
16 Dec 4.8 23:54:08 10° SSW 23:58:36 31° W 00:03:05 10° NW visible
17 Dec 6.5 10:28:25 10° E 10:29:00 10° E 10:29:36 10° E visible
17 Dec 3.2 23:16:39 10° S 23:21:42 71° WSW 23:26:47 10° NNW visible
18 Dec 4.4 11:26:56 10° NNE 11:31:47 44° E 11:36:36 10° S visible
18 Dec 3.1 22:40:07 10° SSE 22:45:00 51° ENE 22:49:55 10° N visible
